Find Starlink 34041

NORAD ID: 63844 Int'l Des: 2025-093 Owner: SPXS Country: US Constellation: starlink operational
LEOCIRCULAR

Current View

Loading 3D Globe...

About Starlink 34041

Description loading...

Upcoming Passes

Passes for default location (London). Set your location on the main map for personalized predictions.

Altitude History

Loading altitude history...

Two-Line Element Set

1 63844U 25093J 26149.86627871 .00025366 00000-0 92765-3 0 9995
2 63844 43.0008 339.7550 0002110 271.0288 89.0322 15.27596627 60387
Epoch: May 29, 2026 • Age: 13 hours

Current Status

Altitude 484.6 km
Velocity 7.63 km/s
Sub-Earth Point 30.85°N, 14.93°W
Launch Date May 7, 2025
Age 1 years
Type internet

Technical Details

Classification Payload
Mass 575.00 kg
Dry Mass 530.00 kg
Total Mass 575.00 kg
Length 0.30 m
Diameter 4.10 m
Span 29.00 m
Shape Box + pan
Manufacturer SPXS
Bus Type Starlink V2MO
Phase Status In Orbit
Owner/State SPXS/US

Most Searched